Tracking 27188 objects as of 2-Apr-2023
HD Live streaming from Space Station
objects crossing your sky now

USA 48

Track USA 48 now!
USA 48 is classified as:


NORAD ID: 20355
Int'l Code: 1989-090B
Perigee: 34,450.5 km
Apogee: 36,883.6 km
Inclination: 17.9 °
Period: 1,429.6 minutes
Semi major axis: 42038 km
RCS: Unknown
Launch date: November 23, 1989
Source: United States (US)
Launch site: AIR FORCE EASTERN TEST RANGE (AFETR)
Your satellite tracking list
Your tracking list is empty




NASA's NSSDC Master Catalog

Two Line Element Set (TLE):
1 20355U 89090B   22092.41923698 0.00000000  00000-0  00000-0 0    01
2 20355  17.9037 355.9471 0289390  71.7823 291.3584  1.00725476    01
Source of the keplerian elements: McCants